History for Miami, FL

Sunday, January 27, 2013 — View Current Conditions

Jump to Data:

Date:
Airport Code:
Recently Viewed Airport Codes: KMIA
Daily Summary
  Actual Average Record
Temperature
Mean Temperature 73°F 68°F  
Max Temperature 79°F 77°F 88°F (1984)
Min Temperature 66°F 60°F 28°F (1940)
Degree Days
Heating Degree Days 0 1  
Month to date heating degree days 4 52  
Since 1 July heating degree days 20 89  
Cooling Degree Days 8 5  
Month to date cooling degree days 232 135  
Year to date cooling degree days 232 135  
Growing Degree Days 22 (Base 50)    
Moisture
Dew Point 62°F    
Average Humidity 68    
Maximum Humidity 81    
Minimum Humidity 54    
Precipitation
Precipitation 0.00 in 0.06 in 1.45 in (1980)
Month to date precipitation 0.54 1.40  
Year to date precipitation 0.54 1.40  
Snow
Snow 0.00 in in in ()
Month to date snowfall 0.0  
Since 1 July snowfall 0.0  
Snow Depth 0.00 in    
Sea Level Pressure
Sea Level Pressure 30.25 in    
Wind
Wind Speed 9 mph (ENE)    
Max Wind Speed 20 mph    
Max Gust Speed 25 mph    
Visibility 10 miles    
Events      
T = Trace of Precipitation, MM = Missing Value Source: NWS Daily Summary

Show full METARS

(help) - Comma Delimited File

Hourly Observations

Time(EST) Temperature Dew Point Humidity Sea Level Pressure Visibility Wind Direction Wind Speed Gust Speed Precipitation Events Conditions
12:53 AM 69.1°F 61.0°F 75% 30.22 in 10.0 miles East 3.5 mph - N/A   Partly Cloudy
1:53 AM 68.0°F 61.0°F 78% 30.21 in 10.0 miles ENE 3.5 mph - N/A   Clear
2:53 AM 69.1°F 62.1°F 78% 30.21 in 10.0 miles ENE 3.5 mph - N/A   Scattered Clouds
3:53 AM 68.0°F 61.0°F 78% 30.21 in 10.0 miles Calm Calm - N/A   Scattered Clouds
4:53 AM 68.0°F 61.0°F 78% 30.21 in 10.0 miles Calm Calm - N/A   Scattered Clouds
5:53 AM 68.0°F 61.0°F 78% 30.22 in 10.0 miles North 3.5 mph - N/A   Partly Cloudy
6:53 AM 66.9°F 61.0°F 81% 30.22 in 10.0 miles North 4.6 mph - N/A   Scattered Clouds
7:53 AM 68.0°F 62.1°F 81% 30.25 in 10.0 miles North 4.6 mph - N/A   Mostly Cloudy
8:53 AM 72.0°F 63.0°F 73% 30.26 in 10.0 miles NNE 4.6 mph - N/A   Mostly Cloudy
9:46 AM 75.2°F 62.6°F 65% 30.27 in 10.0 miles East 15.0 mph 19.6 mph N/A   Mostly Cloudy
9:53 AM 77.0°F 63.0°F 62% 30.27 in 10.0 miles ENE 11.5 mph 19.6 mph N/A   Scattered Clouds
10:53 AM 77.0°F 62.1°F 60% 30.28 in 10.0 miles ENE 15.0 mph 19.6 mph N/A   Scattered Clouds
11:53 AM 77.0°F 61.0°F 58% 30.27 in 10.0 miles ENE 13.8 mph 19.6 mph N/A   Mostly Cloudy
12:53 PM 77.0°F 61.0°F 58% 30.25 in 10.0 miles ENE 12.7 mph 19.6 mph N/A   Scattered Clouds
1:53 PM 79.0°F 61.0°F 54% 30.24 in 10.0 miles ENE 13.8 mph 20.7 mph N/A   Scattered Clouds
2:53 PM 77.0°F 61.0°F 58% 30.23 in 10.0 miles ENE 11.5 mph - N/A   Scattered Clouds
3:53 PM 75.9°F 62.1°F 62% 30.23 in 10.0 miles East 15.0 mph 20.7 mph N/A   Mostly Cloudy
4:53 PM 75.9°F 63.0°F 64% 30.23 in 10.0 miles ENE 11.5 mph 16.1 mph N/A   Scattered Clouds
5:53 PM 75.0°F 63.0°F 66% 30.25 in 10.0 miles ENE 11.5 mph - N/A   Mostly Cloudy
6:37 PM 75.2°F 64.4°F 69% 30.26 in 10.0 miles East 11.5 mph 17.3 mph N/A   Mostly Cloudy
6:51 PM 75.2°F 62.6°F 65% 30.26 in 10.0 miles East 12.7 mph 17.3 mph N/A   Scattered Clouds
6:53 PM 75.0°F 63.0°F 66% 30.26 in 10.0 miles ENE 10.4 mph - N/A   Scattered Clouds
7:53 PM 73.0°F 63.0°F 71% 30.27 in 10.0 miles East 10.4 mph - N/A   Scattered Clouds
8:53 PM 73.0°F 62.1°F 68% 30.28 in 10.0 miles East 11.5 mph - N/A   Partly Cloudy
9:53 PM 72.0°F 62.1°F 71% 30.28 in 10.0 miles East 8.1 mph - N/A   Partly Cloudy
10:53 PM 72.0°F 63.0°F 73% 30.28 in 10.0 miles East 10.4 mph - N/A   Partly Cloudy
11:53 PM 73.0°F 64.0°F 73% 30.26 in 10.0 miles East 15.0 mph - N/A   Scattered Clouds

Search weather conditions

Radar and Maps

Marine Forecast

More resources

More forecasts